Regional Weather Roundup
Issued by NWS

Home | Current Version | Previous Version | Graphics & Text | Print | Product List | Glossary On
Versions: 1 2 3 4 5 6 7 8 9 10 11 12 13 14 15 16 17 18 19 20 21 22 23 24 25 26 27 28 29 30 31 32 33 34 35 36 37 38 39 40 41 42 43 44 45 46 47 48 49 50
000
ASUS43 KDTX 270310
RWRMI
MICHIGAN HOURLY REGIONAL WEATHER ROUNDUP
NATIONAL WEATHER SERVICE DETROIT/PONTIAC MI
1000 PM EST THU FEB 26 2015

NOTE: "FAIR" INDICATES FEW OR NO CLOUDS BELOW 12,000 FEET WITH NO
SIGNIFICANT WEATHER AND/OR OBSTRUCTION TO VISIBILITY.

MIZ047>049-052>055-059>063-066>070-074>076-081>083-270400-
SOUTHEAST LOWER MICHIGAN

CITY           SKY/WX    TMP DP  RH WIND       PRES   REMARKS
ADRIAN         CLEAR      7  -3  64 N6        30.32R WCI  -3
ALMA           FAIR       4  -9  55 NW8       30.34R WCI  -9
ANN ARBOR      PTCLDY     8  -2  63 N5        30.31R WCI   0
BAD AXE        PTCLDY    -7 -11  83 CALM      30.32R
CARO           CLEAR     -6 -11  81 CALM      30.32R
DETROIT CITY   PTCLDY    10  -3  55 N6        30.32R WCI   0
DETROIT        MOCLDY    10   3  73 N5        30.33R WCI   2
FLINT          PTCLDY    -1  -8  72 CALM      30.31R
GROSSE ILE     MOCLDY     9   3  78 N3        30.31R
HILLSDALE      FAIR       4  -4  69 CALM      30.28R
HOWELL         PTCLDY     2  -4  77 CALM      30.29R

CITY           SKY/WX    TMP DP  RH WIND       PRES   REMARKS
JACKSON        FAIR       0  -5  79 SW3       30.30R
LAMBERTVILLE   CLOUDY    12   0  57 CALM      30.33R
LANSING        CLEAR      1  -5  75 W3        30.32R
LAPEER         FAIR      -5  -8  84 CALM      30.31R
MASON          CLEAR     -2  -7  78 CALM      30.30R
MONROE         PTCLDY     9   0  66 CALM      30.31R
PONTIAC        PTCLDY     3  -2  79 CALM      30.28R
PORT HOPE        N/A      4  -4  69 N5        30.30R WCI  -5
PORT HURON     MOCLDY     3  -2  78 NW5       30.32R WCI  -6
TRI CITIES     PTCLDY     4  -4  69 N6        30.34R WCI  -7
TROY           PTCLDY     9  -4  55 CALM      30.33R
SAGINAW HB     CLEAR      1  -2  85 CALM      30.34R
$$
MIZ043>046-050>051-056>058-064>065-071>073-077>080-270400-
SOUTHWEST LOWER MICHIGAN

CITY           SKY/WX    TMP DP  RH WIND       PRES   REMARKS
BATTLE CREEK   FAIR       5  -6  60 CALM      30.31R
BENTON HARBOR  PTCLDY    11   1  64 CALM      30.36R
BIG RAPIDS     CLEAR      1 -11  59 NW5       30.32S WCI  -9
COLDWATER      FAIR       1  -6  74 CALM      30.31R
FREMONT        FAIR       2 -12  51 N3        30.36R
HOLLAND        CLEAR      8  -7  50 N6        30.37R WCI  -2
GRAND RAPIDS   CLEAR      6  -7  54 N7        30.33R WCI  -6
IONIA          FAIR       4  -8  57 N5        30.32R WCI  -6
KALAMAZOO      CLEAR      3  -9  57 CALM      30.32R
LUDINGTON      CLOUDY     1  -7  70 CALM      30.38R
MARSHALL       CLEAR     -5  -9  84 CALM      30.31R
MOUNT PLEASANT CLEAR      3  -9  57 CALM      30.34R
MUSKEGON       CLEAR      6  -8  52 N9        30.38R WCI  -8
SOUTH HAVEN    CLEAR      1  -6  72 CALM      30.35R
$$
MIZ016>042-270400-
NORTHERN LOWER MICHIGAN

CITY           SKY/WX    TMP DP  RH WIND       PRES   REMARKS
ALPENA         CLEAR     -4 -13  65 W6        30.32R WCI -16
BEAVER ISLAND  CLEAR     -8 -12  83 CALM      30.35R
BELLAIRE       CLEAR    -12 -17  79 CALM      30.37S
CADILLAC       CLEAR    -14 -20  72 CALM      30.28R
CHARLEVOIX     CLEAR     -9 -14  79 CALM      30.38R
FRANKFORT      PTCLDY    -7 -12  81 CALM      30.37R
GAYLORD        CLEAR    -13 -19  75 CALM      30.26R
GRAYLING       CLEAR    -12 -18  73 CALM      30.30R
HARBOR SPRINGS CLEAR     -5 -10  80 CALM      30.34R
HOUGHTON LAKE  CLEAR     -5 -13  68 NW5       30.30R WCI -16
MANISTEE       CLEAR     -9 -18  64 E3        30.36S
OSCODA         CLEAR     -6 -14  70 W6        30.32R WCI -19
PELLSTON       CLEAR    -13 -17  82 W3        30.34R
ROGERS CITY    CLEAR     -1  -8  72 W5        30.33R WCI -11
TRAVERSE CITY  CLEAR    -10 -16  74 CALM      30.35S
$$
MIZ007>008-015-270400-
EASTERN UPPER MICHIGAN

CITY           SKY/WX    TMP DP  RH WIND       PRES   REMARKS
KINROSS        MOCLDY    -6  -8  92 W9        30.30R WCI -22
MACKINAC ISLAN CLEAR      0  -7  71 NW5       30.32R WCI -10
NEWBERRY       PTCLDY   -10 -11  95 W5        30.31R WCI -21
S. S. MARIE    LGT SNOW  -1  -6  79 W7        30.29R WCI -14
MUNISING         N/A     -8 -14  74 S8        30.35R WCI -24
$$
MIZ004>006-011>014-085-270400-
CENTRAL UPPER MICHIGAN

CITY           SKY/WX    TMP DP  RH WIND       PRES   REMARKS
MANISTIQUE     PTCLDY   -10 -14  83 NW3       30.34R
ESCANABA       CLEAR     -8 -26  41 CALM      30.37R
MENOMINEE      CLEAR      0  -8  71 W6        30.36R WCI -12
SAWYER-GWINN   CLEAR     -6 -13  71 W3        30.29S
$$
MIZ001>003-009>011-084-270400-
WESTERN UPPER MICHIGAN

CITY           SKY/WX    TMP DP  RH WIND       PRES   REMARKS
IRON MOUNTAIN  CLEAR     -1 -12  59 NW5       30.31R WCI -11
HOUGHTON       CLEAR      2  -6  69 W15       30.28R WCI -17
COPPER HARBOR    N/A      7  -3  64 NW8G18    30.29S WCI  -6
IRONWOOD       CLEAR     -2  -4  92 W6        30.31R WCI -14
$$

ABBREVIATIONS USED IN REMARKS
   TC - TEMPERATURE IN CELSIUS
  WCI - WIND CHILL INDEX
   HX - HEAT INDEX
  VSB - VISIBILITY



USA.gov is the U.S. government's official web portal to all federal, state and local government web resources and services.